Location: Igri�s
(42.2144°N, 0.4320°W)
Time: 13:52:08
(UTC+00:00)

Cosmos 2084 Rocket - Pass Details

Date: 13 August 2020
Orbit: 549 x 632 km, 62.8° (Epoch: 24 September)

Event Time Altitude Azimuth Distance (km) Brightness Sun altitude
Rises 20:49:39 0° 206° (SSW) 2,717 6.7 -17.6°
Reaches altitude 10° 20:51:51 10° 203° (SSW) 1,835 5.8 -17.9°
Maximum altitude 20:55:55 63° 123° (ESE) 636 3.3 -18.5°
Drops below altitude 10° 21:00:08 10° 42° (NE) 1,889 6.0 -19.1°
Sets 21:02:25 0° 40° (NE) 2,807 7.0 -19.4°
